[[{"header":{"parameterUnit":"m.s-1","parameterCategory":1,"la1":30.2991,"la2":30.254,"lo1":-89.0895,"lo2":-89.0444,"dy":0.0017,"dx":0.0017,"nx":28,"ny":28,"refTime":"2025-05-20T09:00:00:Z","depth":0,"parameterNumber":2,"parameterNumberName":"U-component_of_WINDS"},"data":[0,0,0,0,0,0,0,0,0,0,0,0,0,0,0,0,0,0,0,0,0,0,0,0,0,0,0,0,0,0,0,0,0,0,0,0,0,0,0,0,0,0,0,0,0,0,0,0,0,0,0,0,0,0,0,0,0,0,-0.6296,-0.6296,0,-0.6355,-0.6356,-0.6357,-0.6378,-0.6377,-0.6377,-0.6377,-0.6441,-0.6443,-0.6445,0,0,0,0,0,0,0,0,0,0,0,0,0,-0.6204,-0.6205,-0.6296,-0.6296,-0.6297,-0.6355,-0.6356,-0.6357,-0.6378,-0.6377,-0.6377,-0.6377,-0.6441,-0.6443,-0.6445,0,0,0,0,0,0,0,0,0,0,0,0,0,-0.6252,-0.6206,-0.6295,-0.6314,-0.6317,-0.6355,-0.6356,-0.6357,-0.6378,-0.6377,-0.6377,-0.6377,-0.644,-0.6443,-0.6446,-0.6471,0,0,-0.6455,-0.6456,0,0,0,0,0,0,0,0,-0.6249,-0.6255,-0.6311,-0.6313,-0.6316,-0.6359,-0.6347,-0.6395,-0.6378,-0.6355,-0.6377,-0.6376,-0.6414,-0.6419,-0.6431,-0.6474,-0.6476,-0.6455,-0.6457,-0.6458,-0.6459,0,0,0,0,0,0,0,-0.6246,-0.6253,-0.6319,-0.6312,-0.6315,-0.6321,-0.6328,-0.6357,-0.6386,-0.6357,-0.6358,-0.6365,-0.6416,-0.6429,-0.6433,-0.6477,-0.6455,-0.6457,-0.6459,-0.646,-0.6545,-0.6546,0,0,0,0,0,0,-0.6239,-0.625,-0.6317,-0.6321,-0.6281,-0.6323,-0.633,-0.6345,-0.6386,-0.6391,-0.6365,-0.6366,-0.6424,-0.643,-0.6435,-0.6469,-0.6458,-0.6461,-0.6462,-0.6545,-0.6545,-0.6546,0,0,0,0,0,0,-0.6237,-0.6244,-0.6315,-0.6286,-0.6295,-0.6325,-0.6342,-0.6347,-0.6359,-0.6392,-0.6398,-0.6373,-0.6424,-0.6431,-0.6462,-0.6471,-0.6462,-0.6464,-0.6544,-0.6545,-0.6546,-0.6534,0,0,0,0,0,0,-0.6234,-0.6244,-0.6252,-0.6286,-0.6297,-0.6339,-0.6342,-0.6348,-0.6364,-0.6365,-0.64,-0.6406,-0.6424,-0.6457,-0.6465,-0.6475,-0.6467,-0.6544,-0.6545,-0.6546,-0.6534,-0.6534,-0.6535,0,0,0,0,0,-0.623,-0.6247,-0.6252,-0.6261,-0.6308,-0.6339,-0.6346,-0.6365,-0.6365,-0.6374,-0.6396,-0.6405,-0.6469,-0.646,-0.6469,-0.648,-0.6543,-0.6544,-0.6545,-0.6533,-0.6534,-0.6535,0,0,0,0,0,0,-0.6214,-0.6252,-0.6258,-0.6286,-0.6309,-0.6343,-0.6356,-0.6365,-0.639,-0.639,-0.6415,-0.6422,-0.6452,-0.6469,-0.6459,-0.6507,-0.6507,-0.651,-0.6495,-0.6496,-0.6496,-0.6492,-0.6469,0,0,0,0,0,-0.6214,-0.6235,-0.6267,-0.6288,-0.6299,-0.6326,-0.634,-0.6353,-0.6379,-0.6389,-0.6412,-0.6438,-0.6464,-0.6481,-0.6507,-0.6536,-0.6545,-0.6548,-0.6549,-0.6549,-0.6551,-0.657,-0.6572,-0.655,-0.655,-0.655,0,0,-0.6213,-0.6236,-0.6248,-0.6285,-0.6305,-0.6328,-0.6334,-0.6357,-0.6375,-0.6393,-0.6423,-0.6442,-0.6472,-0.6503,-0.6517,-0.6518,-0.656,-0.6551,-0.6551,-0.6553,-0.6572,-0.6574,-0.6576,-0.6551,-0.6551,-0.655,0,0,-0.6224,-0.6243,-0.6263,-0.6283,-0.6312,-0.633,-0.6335,-0.6367,-0.638,-0.641,-0.6425,-0.6447,-0.6491,-0.6513,-0.6529,-0.655,-0.656,-0.6558,-0.656,-0.6578,-0.658,-0.6582,-0.659,-0.6593,-0.656,-0.656,-0.656,0,-0.6219,-0.6253,-0.6273,-0.6296,-0.6312,-0.6329,-0.6351,-0.637,-0.6407,-0.6419,-0.6418,-0.6475,-0.6497,-0.6533,-0.6538,-0.6551,-0.6559,-0.6554,-0.6578,-0.658,-0.6582,-0.659,-0.6593,-0.6559,-0.6559,-0.6559,-0.656,0,-0.6247,-0.627,-0.6284,-0.6318,-0.6336,-0.6359,-0.6383,-0.64,-0.6412,-0.643,-0.6462,-0.6488,-0.652,-0.653,-0.6542,-0.6569,-0.6569,-0.6573,-0.6573,-0.6583,-0.6592,-0.6595,-0.6559,-0.6559,-0.6559,-0.6559,0,0,-0.6248,-0.6294,-0.6299,-0.6315,-0.635,-0.6369,-0.6393,-0.6423,-0.6438,-0.6463,-0.6485,-0.6522,-0.6527,-0.6546,-0.6561,-0.6577,-0.6593,-0.6579,-0.6581,-0.6582,-0.6626,-0.6623,-0.6626,-0.66,-0.66,-0.6601,-0.6624,0,-0.6264,-0.6306,-0.6325,-0.636,-0.6382,-0.6399,-0.6421,-0.6445,-0.6463,-0.6486,-0.6507,-0.6533,-0.6537,-0.6548,-0.6565,-0.6587,-0.6602,-0.6586,-0.6622,-0.6623,-0.6614,-0.663,-0.6627,-0.6647,-0.6627,-0.6628,-0.6628,0,-0.6288,-0.6312,-0.6349,-0.6382,-0.6392,-0.6411,-0.6441,-0.6463,-0.6492,-0.6504,-0.6525,-0.654,-0.6568,-0.6566,-0.6605,-0.6594,-0.661,-0.6623,-0.6625,-0.6629,-0.6626,-0.6636,-0.6654,-0.6657,-0.6633,-0.6633,-0.6632,0,-0.6286,-0.6329,-0.6356,-0.637,-0.6409,-0.6422,-0.6439,-0.6467,-0.6485,-0.6512,-0.6524,-0.6555,-0.6571,-0.6595,-0.6618,-0.6614,-0.6656,-0.6656,-0.6668,-0.6668,-0.6677,-0.6676,-0.6698,-0.6686,-0.6686,-0.6686,-0.6686,0,-0.6302,-0.6324,-0.6356,-0.6373,-0.6399,-0.6421,-0.6447,-0.6465,-0.6491,-0.6513,-0.653,-0.6551,-0.658,-0.6605,-0.6623,-0.6654,-0.6661,-0.6673,-0.6678,-0.6672,-0.667,-0.6683,-0.6682,-0.6687,-0.6686,-0.6686,-0.6686,0,-0.6304,-0.6327,-0.6358,-0.6393,-0.6402,-0.642,-0.645,-0.6468,-0.6487,-0.6515,-0.6523,-0.6554,-0.6584,-0.661,-0.665,-0.6662,-0.6695,-0.67,-0.6685,-0.6687,-0.6699,-0.6698,-0.673,-0.6736,-0.6719,-0.6719,-0.6719,0,-0.6313,-0.633,-0.6367,-0.6382,-0.6399,-0.6424,-0.6442,-0.6466,-0.6484,-0.6519,-0.6534,-0.6565,-0.6592,-0.664,-0.6667,-0.6698,-0.6705,-0.6714,-0.6709,-0.6703,-0.6706,-0.6705,-0.6707,-0.6714,-0.6714,-0.6714,-0.6714,0,-0.6327,-0.6337,-0.6362,-0.6391,-0.6412,-0.6436,-0.6461,-0.6473,-0.6502,-0.6522,-0.6553,-0.6573,-0.6615,-0.6647,-0.6681,-0.67,-0.6713,-0.6716,-0.672,-0.6715,-0.6706,-0.6712,-0.6687,-0.6715,-0.6715,-0.6715,-0.6715,-0.6715,-0.6333,-0.635,-0.6378,-0.6406,-0.6427,-0.645,-0.6469,-0.6491,-0.6516,-0.6551,-0.6564,-0.6596,-0.6627,-0.6674,-0.6694,-0.6721,-0.6722,-0.6729,-0.673,-0.6732,-0.6732,-0.6701,-0.6727,-0.6727,-0.6727,-0.6727,-0.6727,0,-0.6348,-0.6368,-0.6393,-0.6427,-0.6449,-0.6458,-0.6486,-0.6505,-0.6532,-0.6559,-0.6585,-0.6622,-0.6653,-0.6682,-0.6715,-0.6731,-0.6738,-0.6739,-0.6739,-0.6743,-0.6728,-0.6721,-0.6733,-0.6733,-0.6733,-0.6733,-0.6733,-0.6733,-0.6359,-0.6388,-0.6402,-0.6442,-0.6462,-0.6493,-0.6508,-0.6531,-0.6552,-0.6592,-0.6618,-0.6636,-0.6665,-0.6701,-0.6731,-0.6739,-0.6751,-0.6751,-0.676,-0.6745,-0.6744,-0.6743,-0.6737,-0.6753,-0.6753,-0.6774,-0.6774,-0.6774]},{"header":{"parameterUnit":"m.s-1","parameterCategory":1,"la1":30.2991,"la2":30.254,"lo1":-89.0895,"lo2":-89.0444,"dy":0.0017,"dx":0.0017,"nx":28,"ny":28,"refTime":"2025-05-20T09:00:00:Z","depth":0,"parameterNumber":3,"parameterNumberName":"V-component_of_WINDS"},"data":[0,0,0,0,0,0,0,0,0,0,0,0,0,0,0,0,0,0,0,0,0,0,0,0,0,0,0,0,0,0,0,0,0,0,0,0,0,0,0,0,0,0,0,0,0,0,0,0,0,0,0,0,0,0,0,0,0,0,4.2603,4.2604,0,4.2647,4.2647,4.2647,4.2596,4.2594,4.2592,4.259,4.2631,4.2634,4.2637,0,0,0,0,0,0,0,0,0,0,0,0,0,4.2473,4.2475,4.2603,4.2604,4.2604,4.2646,4.2647,4.2648,4.2596,4.2594,4.2591,4.2589,4.263,4.2634,4.2637,0,0,0,0,0,0,0,0,0,0,0,0,0,4.2524,4.2476,4.2603,4.2584,4.2583,4.2646,4.2647,4.2648,4.2597,4.2594,4.2591,4.2588,4.2629,4.2633,4.2638,4.2722,0,0,4.2651,4.2653,0,0,0,0,0,0,0,0,4.2521,4.2529,4.2586,4.2585,4.2584,4.2613,4.2616,4.2672,4.2597,4.2591,4.259,4.2587,4.2627,4.2632,4.2646,4.2724,4.2725,4.2651,4.2654,4.2656,4.2657,0,0,0,0,0,0,0,4.2518,4.2527,4.262,4.2587,4.2586,4.2572,4.2576,4.2626,4.2625,4.2591,4.2588,4.2594,4.2626,4.2642,4.2646,4.2726,4.2651,4.2655,4.2658,4.2659,4.2874,4.2877,0,0,0,0,0,0,4.2517,4.2524,4.2619,4.2622,4.2545,4.2577,4.2581,4.2606,4.2624,4.2624,4.2596,4.2591,4.2636,4.2641,4.2648,4.2747,4.2656,4.266,4.2662,4.2871,4.2875,4.2878,0,0,0,0,0,0,4.2514,4.2526,4.2617,4.2572,4.2582,4.2582,4.2611,4.2609,4.2624,4.2628,4.2627,4.2613,4.2634,4.2642,4.2704,4.2748,4.2662,4.2666,4.2867,4.2872,4.2876,4.2946,0,0,0,0,0,0,4.2511,4.2525,4.2558,4.2573,4.2585,4.2674,4.2613,4.2612,4.2632,4.2626,4.2643,4.2643,4.2632,4.2698,4.2708,4.2752,4.2669,4.2863,4.2869,4.2875,4.294,4.2953,4.2964,0,0,0,0,0,4.2506,4.2575,4.256,4.2572,4.2626,4.2676,4.2683,4.267,4.2636,4.2669,4.267,4.2642,4.2741,4.2704,4.2716,4.2762,4.286,4.2868,4.2874,4.2935,4.295,4.2964,0,0,0,0,0,0,4.2565,4.2577,4.256,4.2636,4.2656,4.2668,4.2708,4.2687,4.2716,4.2709,4.269,4.2695,4.2761,4.2767,4.2726,4.2844,4.2795,4.2805,4.2837,4.2852,4.2864,4.2861,4.2673,0,0,0,0,0,4.2587,4.2627,4.2635,4.2702,4.2713,4.2709,4.273,4.2719,4.2738,4.2745,4.2752,4.277,4.2805,4.2829,4.2861,4.2941,4.2943,4.2978,4.299,4.2999,4.3008,4.305,4.3065,4.2901,4.2901,4.2901,0,0,4.2632,4.2644,4.267,4.2714,4.2728,4.2769,4.2716,4.2762,4.2793,4.2752,4.2811,4.2817,4.2836,4.2907,4.2939,4.2915,4.3054,4.3008,4.3016,4.3019,4.3059,4.3074,4.3088,4.2906,4.2905,4.2904,0,0,4.2736,4.2749,4.2806,4.2821,4.2843,4.284,4.2854,4.2869,4.2871,4.293,4.29,4.2935,4.2997,4.3012,4.3027,4.3137,4.3112,4.3148,4.3209,4.3251,4.3264,4.3275,4.3314,4.3328,4.3156,4.3156,4.3156,0,4.2789,4.2852,4.2838,4.2887,4.2906,4.2872,4.2929,4.2943,4.2974,4.2988,4.2961,4.3037,4.3047,4.3121,4.3148,4.3162,4.3176,4.3146,4.3263,4.3274,4.3285,4.3322,4.3336,4.316,4.316,4.316,4.3159,0,4.2916,4.296,4.3003,4.3035,4.306,4.3112,4.3105,4.3131,4.3117,4.3117,4.3177,4.3189,4.3223,4.3239,4.3226,4.3311,4.3296,4.3266,4.3217,4.3305,4.3339,4.3353,4.3166,4.3165,4.3164,4.3163,0,0,4.3059,4.3082,4.3098,4.3112,4.3134,4.3167,4.3217,4.3251,4.3274,4.3296,4.3337,4.339,4.3362,4.338,4.3368,4.3404,4.349,4.337,4.337,4.3392,4.3584,4.3607,4.3624,4.3473,4.3476,4.3478,4.3583,0,4.3163,4.3252,4.324,4.3325,4.3365,4.3333,4.3376,4.3394,4.3394,4.3427,4.3427,4.3465,4.3426,4.3436,4.3471,4.3472,4.3528,4.3464,4.3511,4.3513,4.3508,4.3641,4.3665,4.3764,4.3596,4.3598,4.36,0,4.3297,4.3325,4.3415,4.3429,4.3446,4.3486,4.3516,4.3548,4.3566,4.3564,4.3584,4.3565,4.3614,4.3565,4.3632,4.3589,4.3607,4.361,4.3614,4.3618,4.3562,4.3649,4.3795,4.381,4.3621,4.3619,4.3618,0,4.3392,4.3452,4.3513,4.3526,4.3545,4.3574,4.3583,4.3598,4.362,4.3645,4.3659,4.369,4.3707,4.3731,4.3721,4.3685,4.379,4.3739,4.3789,4.3789,4.3813,4.3811,4.3964,4.3824,4.3824,4.3824,4.3823,0,4.351,4.3566,4.3556,4.3594,4.3655,4.364,4.3701,4.3706,4.372,4.3757,4.373,4.3765,4.3749,4.3783,4.3775,4.3832,4.3839,4.3838,4.3836,4.3841,4.3841,4.3853,4.3846,4.3828,4.3827,4.3826,4.3825,0,4.3627,4.3623,4.3687,4.37,4.3705,4.3749,4.3759,4.3794,4.3792,4.384,4.385,4.3847,4.3885,4.3877,4.3919,4.3913,4.3985,4.3973,4.3979,4.3977,4.4027,4.4023,4.4192,4.4214,4.406,4.4062,4.4063,0,4.3703,4.3745,4.3763,4.3786,4.3798,4.3836,4.3858,4.3844,4.3868,4.3892,4.3923,4.3959,4.3988,4.405,4.4051,4.4083,4.4072,4.4129,4.4076,4.4081,4.4073,4.4071,4.4075,4.414,4.4141,4.4143,4.4144,0,4.3838,4.3834,4.3867,4.39,4.3927,4.3951,4.3973,4.3993,4.3981,4.4009,4.4049,4.407,4.4113,4.4149,4.4179,4.4186,4.4163,4.4161,4.4174,4.418,4.4182,4.4182,4.4008,4.4157,4.4156,4.4155,4.4154,4.4153,4.3937,4.3973,4.3991,4.4029,4.4044,4.4065,4.4098,4.4101,4.4134,4.4168,4.4158,4.4203,4.4219,4.4256,4.4267,4.4301,4.428,4.4299,4.4304,4.4309,4.4315,4.4176,4.4306,4.4306,4.4306,4.4305,4.4305,0,4.4071,4.4081,4.4115,4.4147,4.4177,4.4153,4.4176,4.4202,4.4242,4.4259,4.4288,4.4333,4.4367,4.4371,4.4404,4.443,4.442,4.4439,4.4437,4.4439,4.4333,4.4318,4.4446,4.4446,4.4446,4.4446,4.4446,4.4446,4.4144,4.4204,4.4202,4.4268,4.4277,4.4322,4.4337,4.4355,4.4369,4.4421,4.445,4.4453,4.4464,4.4497,4.4528,4.4528,4.4541,4.4564,4.456,4.4461,4.4447,4.4433,4.4419,4.4567,4.4567,4.4664,4.4665,4.4666]}]]